Caribou, ME

11:03 PM EST on January 23, 2017 (GMT -0500)
Caribou Municipal

Weather History for KCAR - April, 2014

Change the Weather History Date:

Friday, April 25, 2014

  Actual Average Record
Temperature  
Mean Temperature 37 °F 43 °F  
Max Temperature 45 °F 53 °F 77 °F (2009)
Min Temperature 29 °F 34 °F 17 °F (2004)
Degree Days  
Heating Degree Days 28 22  
Month to date heating degree days 711 694  
Since 1 July heating degree days 8905 8669  
Cooling Degree Days 0 0  
Month to date cooling degree days 0 0  
Year to date cooling degree days 0 0  
Moisture  
Dew Point 30 °F    
Average Humidity 75    
Maximum Humidity 92    
Minimum Humidity 58    
Precipitation  
Precipitation 0.00 in 0.09 in 0.67 in (2005)
Month to date precipitation 4.37 2.21  
Year to date precipitation 14.03 9.64  
Snow  
Snow 0.00 in 0.10 in 2.30 in (1944)
Month to date snowfall 9.2 7.0  
Since 1 July snowfall 150.7 107.8  
Snow Depth 1.00 in    
Sea Level Pressure  
Sea Level Pressure 29.88 in    
Wind  
Wind Speed 9 mph (NNW)    
Max Wind Speed 20 mph    
Max Gust Speed 23 mph    
Visibility 10 miles    
Events      
T = Trace of Precipitation, MM = Missing Value Source: NWS Daily Summary

Daily Weather History Graph

Daily Weather History Graph

Search for Another Location

Airport or City:

Trip Planner

Search our weather history database for the weather conditions in past years. The results will help you decide how hot, cold, wet, or windy it might be!

Date:

Astronomy

Apr. 25, 2014 Rise Set
Actual Time 5:26 AM EDT 7:34 PM EDT
Civil Twilight 4:53 AM EDT 8:07 PM EDT
Nautical Twilight 4:13 AM EDT 8:48 PM EDT
Astronomical Twilight 3:27 AM EDT 9:34 PM EDT
Moon 3:28 AM EDT (4/25) 3:38 PM EDT (4/25)
Length of Visible Light 15h 13m
Length of Day
14h 07m
Waning Crescent, 15% of the Moon is Illuminated
Apr 25
Waning Crescent
Apr 29
New
May 6
First Quarter
May 14
Full
May 21
Last Quarter

Hourly Weather History & Observations

Time (EDT) Temp. Windchill Dew Point Humidity Pressure Visibility Wind Dir Wind Speed Gust Speed Precip Events Conditions
12:54 AM 33.1 °F 24.9 °F 30.0 °F 89% 29.87 in 10.0 mi NW 10.4 mph - N/A   Overcast
1:44 AM 32.0 °F 23.6 °F 30.0 °F 92% 29.83 in 10.0 mi NNW 10.4 mph - N/A   Overcast
1:54 AM 32.0 °F 23.6 °F 30.0 °F 92% 29.87 in 10.0 mi NNW 10.4 mph - N/A   Overcast
2:13 AM 32.0 °F 24.8 °F 30.0 °F 92% 29.83 in 10.0 mi NNW 8.1 mph - N/A   Overcast
2:23 AM 32.0 °F 23.6 °F 28.9 °F 88% 29.83 in 10.0 mi NNW 10.4 mph - N/A   Overcast
2:54 AM 32.0 °F 24.8 °F 28.9 °F 88% 29.83 in 10.0 mi NNW 8.1 mph - N/A   Overcast
2:59 AM 32.0 °F 24.8 °F 28.9 °F 88% 29.83 in 10.0 mi NW 8.1 mph - N/A   Overcast
3:27 AM 32.0 °F 25.6 °F 28.9 °F 88% 29.84 in 10.0 mi NW 6.9 mph - N/A   Overcast
3:54 AM 32.0 °F 23.6 °F 28.9 °F 88% 29.84 in 10.0 mi NNW 10.4 mph - N/A   Overcast
4:18 AM 32.0 °F 23.0 °F 28.0 °F 85% 29.84 in 10.0 mi NNW 11.5 mph - N/A   Overcast
4:40 AM 32.0 °F 23.0 °F 28.9 °F 88% 29.85 in 10.0 mi NNW 11.5 mph - N/A   Overcast
4:54 AM 32.0 °F 23.0 °F 28.9 °F 88% 29.85 in 10.0 mi NNW 11.5 mph - N/A   Overcast
5:54 AM 30.9 °F 22.2 °F 28.0 °F 89% 29.87 in 10.0 mi NW 10.4 mph - N/A   Overcast
6:04 AM 30.9 °F 22.2 °F 28.0 °F 89% 29.87 in 10.0 mi NW 10.4 mph - N/A   Overcast
6:54 AM 32.0 °F 23.6 °F 28.9 °F 88% 29.92 in 10.0 mi NW 10.4 mph - N/A   Mostly Cloudy
8:54 AM 34.0 °F 26.6 °F 30.0 °F 85% 29.95 in 10.0 mi NNW 9.2 mph - N/A   Overcast
9:43 AM 35.1 °F 28.6 °F 30.0 °F 82% 29.90 in 10.0 mi North 8.1 mph - N/A   Overcast
9:54 AM 35.1 °F 27.4 °F 30.0 °F 82% 29.94 in 10.0 mi NNW 10.4 mph - N/A   Overcast
10:54 AM - - - N/A% 29.90 in 10.0 mi NNW 8.1 mph 18.4 mph N/A   Overcast
11:54 AM - - - N/A% 29.89 in 10.0 mi NNW 9.2 mph - N/A   Overcast
12:17 PM - - - N/A% 29.89 in - North - - N/A   Unknown
12:54 PM - - - N/A% 29.89 in 10.0 mi North 8.1 mph - N/A   Overcast
1:50 PM 39.2 °F 32.0 °F 30.2 °F 70% 29.87 in 10.0 mi North 11.5 mph - N/A   Mostly Cloudy
1:54 PM 39.9 °F 33.4 °F 30.9 °F 70% 29.91 in 10.0 mi North 10.4 mph - N/A   Mostly Cloudy
2:54 PM 41.0 °F 33.9 °F 30.9 °F 67% 29.91 in 10.0 mi NNW 12.7 mph 21.9 mph N/A   Overcast
3:16 PM 42.1 °F 34.2 °F 30.0 °F 62% 29.88 in 10.0 mi NNW 16.1 mph 23.0 mph N/A   Mostly Cloudy
3:54 PM 43.0 °F 36.0 °F 30.9 °F 62% 29.90 in 10.0 mi NNW 13.8 mph - N/A   Mostly Cloudy
4:54 PM 44.1 °F 37.4 °F 32.0 °F 63% 29.89 in 10.0 mi NNW 13.8 mph - N/A   Scattered Clouds
5:54 PM 45.0 °F 38.9 °F 30.0 °F 56% 29.91 in 10.0 mi North 12.7 mph 20.7 mph N/A   Overcast
6:54 PM 42.1 °F 38.4 °F 30.0 °F 62% 29.91 in 10.0 mi North 5.8 mph - N/A   Clear
7:54 PM 39.0 °F 34.8 °F 30.0 °F 70% 29.92 in 10.0 mi NNW 5.8 mph - N/A   Clear
8:54 PM 37.9 °F 34.4 °F 28.9 °F 70% 29.93 in 10.0 mi North 4.6 mph - N/A   Clear
9:54 PM 33.1 °F - 28.0 °F 82% 29.93 in 10.0 mi Calm Calm - N/A   Clear
10:54 PM 33.1 °F 30.0 °F 28.9 °F 85% 29.89 in 10.0 mi West 3.5 mph - N/A   Clear
11:54 PM 30.0 °F 26.5 °F 27.0 °F 88% 29.89 in 10.0 mi West 3.5 mph - N/A   Clear